Regional Weather Roundup
Issued by NWS Boston, MA

Home | Current Version | Previous Version | Text Only | Print | Product List | Glossary On
Versions: 1 2 3 4 5 6 7 8 9 10 11 12 13 14 15 16 17 18 19 20 21 22 23 24 25 26 27 28
000
ASUS41 KBOX 230910
RWRBOX

REGIONAL WEATHER ROUNDUP
NATIONAL WEATHER SERVICE TAUNTON MA
500 AM EDT SUN APR 23 2017

NOTE:  "FAIR" INDICATES FEW OR NO CLOUDS BELOW 12,000 FEET WITH NO
SIGNIFICANT WEATHER AND/OR OBSTRUCTIONS TO VISIBILITY.

MAZALL-231000-
EASTERN MASSACHUSETTS

CITY           SKY/WX    TMP DP  RH WIND       PRES   REMARKS
BOSTON         CLOUDY    42  37  82 NW9       30.00R
BEVERLY        CLEAR     38  37  97 NW5       29.98S
LAWRENCE       CLEAR     40  36  86 CALM      30.01S
BEDFORD        CLEAR     37  33  85 W3        29.99S
BLUE HILL        N/A     38  35  89 NW9       29.98R WCI  31
NORWOOD        CLOUDY    37  36  96 S3        30.01R
MARSHFIELD     CLOUDY    39  37  93 CALM      30.00R FOG
PLYMOUTH       PTCLDY    40  39  97 W3        30.00S FOG
TAUNTON        PTCLDY    36  35  96 W3        30.01R FOG
NEW BEDFORD    PTCLDY    40  38  93 CALM      30.00R
$$

MAZALL-231000-
CAPE COD AND THE ISLANDS

CITY           SKY/WX    TMP DP  RH WIND       PRES   REMARKS
FALMOUTH       CLOUDY    41  41 100 MISG      30.00S
HYANNIS        CLOUDY    44  41  89 N8        29.98S
CHATHAM        CLOUDY    43  41  93 N5        30.00R
PROVINCETOWN   CLOUDY    43  40  89 N10       30.00R
NANTUCKET      CLOUDY    44  38  79 N12       29.99R
MARTHAS VNYRD  CLOUDY    42  39  89 NE9       30.00R
$$

MAZALL-231000-
CENTRAL AND WESTERN MASSACHUSETTS

CITY           SKY/WX    TMP DP  RH WIND       PRES   REMARKS
WORCESTER      CLEAR     38  33  82 W3        30.00R
FITCHBURG      CLEAR     41  36  82 N5        30.01S
ORANGE         MOCLDY    34  33  96 CALM      30.02S
SPRINGFIELD    CLEAR     42  33  71 N5        30.02R
WESTFIELD      CLEAR     39  36  89 N6        30.03R
NORTH ADAMS    PTCLDY    42  35  76 W5        30.03F
PITTSFIELD     CLEAR     35  33  92 W7        30.01S WCI  29
$$

RIZALL-231000-
RHODE ISLAND

CITY           SKY/WX    TMP DP  RH WIND       PRES   REMARKS
PROVIDENCE     CLOUDY    44  39  82 NW6       30.02R
NEWPORT        PTCLDY    41  40  96 N5        30.00S
BLOCK ISLAND   CLOUDY    42  42 100 NW3       30.02S
SMITHFIELD     PTCLDY    41  36  82 NW8       30.01R
WESTERLY       MOCLDY    46  43  89 CALM      30.02S
$$

CTZALL-231000-
CONNECTICUT

CITY           SKY/WX    TMP DP  RH WIND       PRES   REMARKS
BRADLEY INTL   CLOUDY    42  37  82 NW6       30.04R
HARTFORD       PTCLDY    46  38  73 CALM      30.04R
BRIDGEPORT     CLOUDY    48  37  65 N8        30.04R
DANBURY        CLOUDY    42  36  79 N6        30.06R
GROTON         MOCLDY    46  42  86 N8        30.02R
NEW HAVEN      CLOUDY    46  39  76 N9        30.04R
CHESTER        FAIR      46  37  71 N6        30.03R
MERIDEN        PTCLDY    47  37  68 NW6       30.05R
WILLIMANTIC    PTCLDY    46  36  68 N3        30.03S
OXFORD         CLOUDY    39  30  70 N6        30.05R
$$

MEZ002-015-021-024-NHZ003-005-008-011-012-014-VTZ005-008-231000-
NORTHERN NEW ENGLAND

CITY           SKY/WX    TMP DP  RH WIND       PRES   REMARKS
PORTLAND ME    CLOUDY    36  35  96 W5        29.99R FOG
BANGOR ME      FOG       36  35  96 W3        29.96S VSB 1
CONCORD NH     CLEAR     34  32  92 CALM      30.00R
MANCHESTER NH  CLEAR     38  33  82 CALM      29.98S
NASHUA NH      CLEAR     37  35  92 NW6       30.00F
PORTSMOUTH NH  FOG       36  35  97 CALM      29.98R VSB 1/8
JAFFREY NH     CLEAR     38  36  92 CALM      30.00S
KEENE NH       MOCLDY    32  32 100 CALM      30.03S
BURLINGTON VT  CLEAR     39  37  92 CALM      30.05R
MT. WASHINGTON FOG       21  21 100 NW46        N/A  VSB 1/8 WCI   0
$$

NYZ052-076-231000-
EASTERN NEW YORK

CITY           SKY/WX    TMP DP  RH WIND       PRES   REMARKS
ALBANY         PTCLDY    40  33  76 N3        30.06F
NEW YORK CITY  CLOUDY    49  35  58 N12       30.05R
$$

ANZALL-231000-
MARINE OBSERVATIONS

STATION/POSITION TIME  TEMP    WIND        PRES    VSBY  WAVE
                       AIR SEA DIR/SP/G                  HT/PER
                 (UTC) (F)     (DEG/KT/KT) (MB)    (MI)  (FT/S)
BOSTON BUOY      0750   43 44  310/  8/  8 1014.7          5/ 9
BUZZARDS BAY     0800   44     330/  5/  6 1016.2R
NANTUCKET SOUND  0850      47              1015.7R         2/ 3
MASS BAY-STELLWA 0804   43 45  310/  6/  6 1014.9R         6/ 8
ISLE OF SHOALS   0800   41     290/  5/  5 1015.2R
S OF BLOCK IS    0855      46                N/A           3/11
$$

......................KEY.........................
  SKY/WX - SKY CONDITION/PRESENT WEATHER
  TMP    - TEMPERATURE IN FAHRENHEIT
  DWPT   - DEWPOINT IN FAHRENHEIT
  RH     - RELATIVE HUMIDITY IN PERCENT
  WIND   - DIRECTION AND SPEED IN MPH
  PRES   - MEAN SEA LEVEL PRESSURE IN INCHES OF HG
  WCI    - WIND CHILL INDEX
  VSB    - VISIBILITY IN MILES
  HX     - HEAT INDEX
  TC     - TEMPERATURE IN CELSIUS
  VRB    - VARIABLE WIND DIRECTION
  N/A    - NOT AVAILABLE




USA.gov is the U.S. government's official web portal to all federal, state and local government web resources and services.